Location: Berlin
(42.3812°N, 71.6370°W)
Time: 23:09:47
(UTC+00:00)

Cosmos 1400 Rocket - Pass Details

Date: 15 November 2025
Orbit: 476 x 513 km, 81.1° (Epoch: 13 December)

Event Time Altitude Azimuth Distance (km) Brightness Sun altitude
Exits shadow 10:36:06 -1° 345° (NNW) 2,647 6.0 -11.5°
Rises 10:36:16 0° 345° (NNW) 2,580 6.0 -11.5°
Reaches altitude 10° 10:38:25 10° 341° (NNW) 1,687 5.0 -11.1°
Maximum altitude 10:42:02 54° 264° (W) 593 2.6 -10.5°
Drops below altitude 10° 10:45:34 10° 186° (S) 1,653 5.4 -9.9°
Sets 10:47:40 0° 182° (S) 2,522 6.4 -9.5°
